GFSCGP_250_rhum_045.txt.gz
RH
92 50 42 36 51 39 38 66 67 44 35 33 29 26 38 100 81 86 95 99 100 100 100 84 64 40 63 100 100 83 100 100 100 100 98 80 67 97 100 100 100 100 100 100
44 32 46 63 79 60 35 61 64 47 47 38 30 30 44 56 96 89 98 78 100 100 95 72 76 70 63 34 57 73 85 98 97 79 52 31 43 64 70 76 100 100 100 99
45 30 49 63 63 64 63 44 69 61 45 42 36 30 27 44 56 96 79 59 81 98 100 100 100 64 97 86 53 62 42 37 36 36 34 53 74 63 84 94 86 89 88 83
46 44 49 69 87 94 82 93 84 62 49 46 45 32 27 27 57 75 75 93 59 83 100 100 100 100 86 81 99 100 95 96 84 78 99 95 100 100 100 100 100 100 100 100
88 54 80 92 92 100 98 100 73 59 59 59 50 36 26 26 38 49 69 86 100 73 64 91 95 100 100 100 100 100 100 100 100 100 100 100 100 100 100 100 100 100 96 92
78 67 85 97 96 100 100 100 62 63 76 81 59 42 34 27 27 50 54 69 82 100 98 76 78 95 99 100 100 100 100 100 100 100 100 100 100 100 100 89 88 96 92 84
77 62 65 88 100 100 100 100 74 60 66 97 73 54 36 33 28 28 56 60 60 60 74 56 54 51 60 91 54 63 91 93 99 98 97 98 92 83 84 80 79 81 80 73
63 60 89 81 100 100 100 100 90 51 53 100 87 68 40 36 33 30 27 41 62 61 56 94 64 66 62 54 73 62 54 73 61 56 54 57 58 55 48 49 44 45 45 43
53 57 72 66 75 100 100 100 85 53 68 100 100 87 52 40 40 35 26 26 28 60 64 51 64 80 83 93 88 100 100 94 80 70 54 72 76 72 65 65 56 56 53 52
70 90 65 80 100 100 100 95 76 71 75 100 100 99 57 36 35 38 36 32 29 21 40 63 51 54 59 73 68 71 66 66 74 86 64 54 62 57 61 55 66 84 76 62
78 100 99 100 100 100 97 85 99 100 96 100 99 100 63 63 57 32 36 34 32 25 21 28 57 66 77 86 100 100 95 100 99 100 100 89 77 88 99 100 100 100 100 89
100 100 100 100 100 100 77 66 82 96 71 64 100 100 87 97 64 38 34 33 34 28 24 21 19 40 56 83 86 100 89 100 100 100 100 81 84 100 100 100 100 98 99 85
100 100 100 100 100 100 100 99 85 74 92 83 94 100 64 100 92 49 36 37 35 30 25 43 37 25 27 38 54 79 63 69 76 77 72 64 96 100 81 100 100 100 100 98
100 100 100 100 100 100 100 100 100 99 75 96 97 100 84 84 86 59 48 40 37 36 29 28 46 52 44 32 30 42 58 63 67 87 85 78 82 100 100 100 100 100 91 81
100 100 100 100 100 100 100 100 100 98 96 74 100 95 100 93 90 72 72 36 42 37 36 33 29 44 51 54 52 46 35 26 38 45 41 48 36 44 77 100 85 68 76 86
100 100 100 100 100 100 100 100 100 100 100 100 92 92 100 100 100 100 80 45 47 42 44 39 32 30 37 27 42 40 42 42 39 30 35 51 52 50 54 62 53 34 36 32
100 100 100 100 100 100 100 100 100 100 96 100 99 88 90 72 76 100 87 76 65 42 44 42 40 40 42 35 33 29 44 56 57 61 60 48 42 40 43 41 41 42 45 50
100 100 100 100 100 100 99 100 100 100 99 100 100 91 88 74 54 100 99 92 86 47 46 47 47 41 42 50 48 44 60 50 45 42 42 46 52 57 62 62 58 52 52 53
97 82 100 100 100 100 100 100 100 100 100 100 100 100 94 84 64 83 100 74 51 50 48 41 42 46 48 45 52 60 55 50 50 49 49 52 56 59 63 73 82 87 92 88
82 81 90 100 100 100 100 100 100 91 88 100 100 100 84 80 51 100 100 89 66 99 57 49 42 41 46 49 52 52 50 48 51 65 68 65 61 58 56 54 52 58 62 74
40 65 90 71 80 96 96 100 100 79 95 100 98 92 90 79 65 100 100 98 44 98 87 68 46 47 46 48 53 51 48 54 51 64 62 63 65 63 70 77 80 77 79 86
32 58 91 100 70 65 79 100 100 93 93 93 79 83 79 76 55 100 100 83 49 76 92 91 72 56 55 54 64 75 58 54 62 67 77 68 72 78 78 86 86 98 98 97
26 43 75 74 80 65 54 83 100 96 96 97 91 82 69 55 75 100 100 100 59 47 99 100 73 51 65 61 74 92 72 70 84 66 73 66 70 68 84 94 89 87 82 81
24 24 24 30 41 45 54 55 65 62 66 81 84 76 62 91 100 100 100 91 43 90 88 67 75 65 73 67 66 80 73 73 91 90 80 88 71 81 89 84 79 80 73 75
20 25 27 26 30 33 35 36 36 40 52 58 51 56 92 100 100 100 100 100 80 56 72 91 90 82 73 86 59 60 67 66 86 97 88 87 95 88 83 85 82 77 88 90
16 26 26 26 27 25 28 35 38 44 49 61 40 72 100 100 100 100 100 100 100 94 73 99 100 92 63 62 71 60 72 83 98 95 85 85 100 96 99 95 84 86 80 86

GFSCGP_250_rhum_048.txt.gz
RH
47 100 93 100 41 34 34 49 52 43 56 53 37 39 27 25 44 93 75 100 100 100 100 93 61 82 88 93 96 100 100 100 100 100 100 96 74 88 90 100 87 84 100 100
100 71 42 70 40 40 62 62 82 76 56 36 37 39 29 24 35 89 85 87 100 99 94 94 86 84 68 97 100 100 100 100 100 100 100 100 87 98 100 100 100 100 100 96
40 96 47 44 31 36 49 67 99 94 49 47 30 44 38 25 23 42 70 96 87 96 64 63 85 93 90 79 97 100 100 100 100 100 100 100 100 100 100 100 100 88 60 59
31 46 79 75 39 40 53 73 99 100 85 48 31 34 46 28 23 31 62 86 95 78 83 68 92 77 90 92 60 75 94 100 100 100 100 100 100 100 100 100 95 67 48 55
37 33 48 84 82 39 50 55 100 100 100 71 36 35 56 44 27 25 36 54 100 92 64 95 88 99 88 100 92 70 80 87 81 75 78 83 94 94 93 74 56 61 94 100
37 37 44 62 58 52 31 51 97 100 100 80 53 38 52 69 33 28 26 30 43 62 100 63 76 96 94 99 100 96 100 100 100 100 84 77 99 100 92 92 100 100 100 100
41 36 32 38 64 68 41 40 71 100 100 82 62 42 39 88 37 28 32 26 28 48 56 78 76 55 62 82 100 100 97 100 100 100 100 100 91 100 100 100 100 92 87 90
50 47 57 60 44 69 59 36 60 100 100 92 64 42 36 47 50 33 31 31 31 28 40 59 66 72 68 55 71 82 91 98 93 91 85 92 91 84 78 68 66 72 65 57
57 48 67 56 53 53 67 43 54 97 100 96 54 37 39 43 51 32 36 30 28 33 33 30 48 58 64 70 53 53 60 84 81 76 67 75 81 78 68 57 56 64 62 68
66 55 47 48 44 42 51 52 51 98 100 90 52 43 73 46 58 43 36 34 26 34 36 39 31 38 48 55 53 62 62 85 98 93 99 100 95 87 73 72 80 100 100 100
73 61 64 46 41 43 50 49 70 100 100 98 58 43 91 69 74 59 41 35 27 23 30 30 33 37 34 50 53 53 52 67 88 97 68 54 45 47 57 100 100 100 100 87
100 74 65 68 62 44 43 98 100 100 100 96 55 60 63 86 78 73 60 47 39 27 23 25 32 40 44 35 49 48 47 48 53 70 89 79 99 76 100 100 100 100 100 100
98 85 73 83 54 46 66 100 100 100 100 100 62 93 52 89 79 79 67 57 62 42 33 25 29 27 31 49 42 53 55 53 72 80 100 100 100 100 100 100 100 100 100 100
100 99 87 92 81 92 100 100 100 100 100 100 79 100 78 80 79 73 89 78 79 93 60 42 30 27 31 31 53 54 54 63 58 65 72 100 100 100 94 97 100 100 100 99
100 100 100 100 98 68 99 100 100 100 100 100 100 99 100 94 86 87 81 76 78 100 87 73 51 28 26 32 32 42 54 58 54 57 80 100 100 100 99 100 100 100 100 100
98 96 100 100 100 98 85 100 100 100 100 100 100 100 100 100 83 76 70 63 78 72 89 92 79 32 30 31 33 31 34 44 48 70 95 99 100 100 100 100 100 100 87 82
92 92 86 91 100 100 100 99 100 100 100 100 100 100 100 100 99 77 58 70 73 100 93 94 79 54 36 37 41 39 34 36 49 77 93 99 100 100 95 84 69 56 59 59
97 78 70 96 100 100 99 100 100 100 100 100 100 100 100 100 100 81 84 83 68 89 92 93 88 79 69 44 37 42 42 48 57 75 78 79 69 69 64 61 47 43 43 46
36 37 61 73 79 96 73 100 100 100 100 100 100 100 100 100 100 100 100 99 87 68 69 82 100 83 100 69 43 40 46 57 65 62 64 66 68 58 57 60 65 60 57 60
24 30 38 48 57 86 100 100 100 100 100 100 100 100 100 100 81 94 87 72 83 78 71 90 100 94 71 100 75 43 38 40 44 48 47 50 51 54 58 59 52 52 52 54
21 21 25 44 41 54 98 100 100 100 100 100 100 98 100 95 79 85 88 98 99 82 75 97 100 100 72 72 66 74 54 41 41 47 58 55 48 46 49 52 48 54 61 65
13 15 21 31 48 56 76 90 100 100 100 100 100 96 84 84 88 92 99 100 93 86 85 94 100 94 86 72 72 96 73 48 45 61 77 60 65 66 61 61 66 67 57 55
11 16 21 25 34 45 60 67 76 86 100 100 100 90 86 90 96 86 99 96 94 84 73 100 100 100 96 78 88 85 72 74 82 92 84 66 59 60 61 72 82 71 74 62
13 13 18 24 35 38 41 49 64 72 64 65 85 89 95 99 99 82 74 86 89 90 100 99 100 100 100 95 85 82 85 92 91 79 78 59 63 70 58 59 75 81 86 71
12 12 14 22 28 27 31 30 33 40 59 66 63 64 86 98 93 67 49 66 68 75 100 100 100 100 100 100 99 100 95 97 88 81 65 57 56 55 70 69 69 88 95 71
11 11 13 18 17 24 38 44 36 34 35 38 43 60 85 73 48 39 40 45 60 100 100 100 100 100 100 100 100 100 100 95 95 79 70 46 50 62 66 81 86 93 100 75

GFSCGP_250_rhum_051.txt.gz
RH
36 98 72 72 100 73 96 64 36 59 90 94 66 54 27 38 27 22 35 76 71 94 70 76 80 58 49 45 46 75 79 98 100 73 93 100 100 100 100 100 100 100 100 100
47 100 80 64 98 58 63 67 31 44 73 100 88 75 42 30 49 25 33 82 86 73 97 64 95 67 48 51 46 51 82 78 97 100 100 100 99 100 100 100 100 100 99 92
56 59 33 39 72 100 87 39 30 37 54 100 100 82 55 32 36 34 23 41 73 92 99 88 92 98 82 68 66 57 42 47 70 93 98 91 80 100 100 100 100 100 92 92
49 43 38 35 33 34 62 49 42 28 58 100 100 92 72 41 30 35 25 24 39 78 90 88 55 80 92 98 90 75 80 77 67 71 100 100 100 100 100 100 100 100 100 100
74 60 52 43 41 36 99 44 72 35 34 94 100 100 88 46 28 35 29 28 25 40 80 74 79 60 70 85 100 100 100 100 100 100 100 100 100 100 100 100 100 100 100 100
100 97 76 56 50 37 45 32 50 52 44 55 76 100 98 61 30 36 31 27 28 28 37 74 69 81 65 68 91 100 100 100 100 100 100 100 100 99 95 97 100 90 86 76
100 100 91 69 57 45 40 34 30 26 38 45 56 99 95 70 34 31 41 34 26 26 28 30 48 70 61 58 77 85 100 100 100 100 92 86 96 98 100 100 77 74 84 92
100 100 100 99 89 65 42 37 34 39 28 52 74 100 77 71 44 51 37 39 33 27 26 26 24 46 74 57 48 61 86 97 100 100 100 100 100 91 100 99 98 100 100 100
100 100 100 88 77 59 51 40 43 35 40 61 100 100 65 91 45 67 56 47 40 32 30 26 23 24 45 60 71 51 53 66 84 89 97 83 90 95 90 84 85 84 82 78
100 100 100 95 76 60 58 54 55 54 51 46 66 100 99 99 55 72 81 62 49 41 34 33 24 20 20 32 56 54 49 52 64 75 72 80 85 83 80 71 74 82 76 79
100 100 100 95 69 74 74 63 55 48 42 40 54 95 100 100 68 66 81 72 56 53 50 40 26 24 23 22 25 35 50 52 41 47 52 54 66 80 77 83 80 69 65 57
100 96 94 87 100 90 68 62 53 46 39 46 73 100 100 100 86 74 78 74 67 59 66 70 35 25 29 28 23 31 38 42 44 52 51 43 51 60 70 66 53 47 54 54
100 100 100 99 93 93 90 86 83 91 64 49 89 100 100 100 92 84 73 73 83 65 61 70 68 39 26 29 29 24 29 40 39 50 64 82 98 100 66 61 51 70 84 100
99 95 100 100 100 100 90 95 98 76 46 46 80 100 100 100 89 68 65 64 89 90 68 66 71 75 53 45 27 29 28 25 33 48 66 95 86 99 94 86 94 86 98 100
94 100 98 90 100 92 100 100 100 95 78 51 98 100 100 100 86 99 84 100 100 86 73 58 66 77 88 70 56 30 30 33 31 29 34 47 66 74 70 91 86 72 99 100
100 100 100 100 100 98 80 100 100 97 85 48 77 100 100 100 100 98 86 99 100 92 68 66 57 62 100 89 63 67 53 32 38 38 34 34 39 52 70 81 98 100 100 100
73 79 100 100 100 100 100 100 100 100 100 94 64 100 100 100 100 91 96 100 100 98 83 80 70 62 81 100 99 79 65 63 36 48 56 78 84 96 100 100 100 100 100 100
76 91 100 100 100 100 100 100 100 100 100 100 89 77 99 100 100 100 98 100 100 87 73 86 91 88 71 97 100 100 84 81 62 47 38 62 98 100 100 100 100 100 100 96
71 72 81 87 91 91 100 100 100 100 99 93 100 60 89 100 100 100 99 94 90 95 85 85 99 97 89 86 98 100 100 93 86 74 65 43 56 71 76 63 59 56 54 51
29 30 39 47 44 55 80 99 100 100 96 94 100 99 89 98 80 100 100 86 84 100 100 100 90 100 89 72 98 100 100 100 99 87 93 72 51 43 44 63 58 50 45 44
24 24 23 26 23 28 48 60 82 94 87 99 100 100 100 100 100 100 100 100 96 100 100 100 95 100 93 81 87 100 100 100 83 77 87 99 79 71 57 47 50 50 54 56
11 11 12 14 18 22 34 26 46 61 68 95 99 99 100 95 98 100 100 100 100 100 98 100 98 92 92 96 89 100 100 100 100 100 93 100 72 72 64 56 55 62 62 52
15 14 12 10 13 22 32 20 29 34 38 52 69 68 98 100 94 100 100 98 100 100 92 88 99 100 89 86 89 84 100 100 100 100 79 93 82 86 72 78 85 69 63 58
14 14 12 10 13 17 19 19 19 22 28 39 55 59 65 84 77 86 88 100 100 100 100 92 91 100 98 82 82 98 100 100 100 100 100 100 100 94 89 86 82 85 80 85
13 13 12 14 15 14 22 21 19 20 31 37 49 66 80 86 91 87 93 95 99 100 96 94 89 96 90 89 100 100 100 100 100 100 100 100 92 85 98 99 78 66 78 91
18 13 13 21 17 17 20 26 21 23 31 35 29 43 60 66 74 80 83 85 88 90 88 84 69 76 71 80 92 100 100 100 100 100 100 100 100 98 90 83 77 74 81 99

GFSCGP_250_rhum_057.txt.gz
RH
75 93 100 80 59 72 71 100 93 58 76 71 95 74 69 72 64 53 27 30 28 23 21 47 42 48 43 60 83 100 100 100 100 100 100 100 97 98 96 90 84 100 100 100
65 92 100 77 66 99 82 94 75 52 59 99 73 94 82 86 56 63 29 36 31 35 22 24 54 61 61 41 61 86 93 97 100 98 100 100 100 100 100 96 89 81 76 90
81 100 100 72 68 100 100 85 38 35 51 86 96 65 89 91 87 71 43 43 32 32 34 23 36 58 68 75 53 39 57 83 81 99 96 100 100 100 100 99 96 100 87 79
64 100 100 87 73 100 100 46 26 46 42 60 56 98 81 87 98 85 58 49 40 32 43 26 25 37 62 71 77 51 48 60 79 75 100 100 99 100 99 99 100 100 93 78
100 100 100 100 100 100 100 50 34 62 73 61 36 86 64 100 81 88 66 45 57 38 32 35 28 26 32 56 55 88 82 72 62 70 82 82 82 100 100 100 100 100 100 100
60 100 100 99 89 90 100 89 72 63 35 46 41 44 100 58 52 67 76 62 53 51 36 44 48 26 26 26 51 51 91 99 100 94 82 96 100 100 100 100 100 100 100 100
72 100 100 100 100 100 100 100 100 58 34 56 55 52 98 56 49 61 73 100 77 75 53 46 42 34 25 25 24 41 56 90 94 100 100 100 100 100 100 100 100 100 100 100
100 96 100 100 100 100 100 100 80 71 52 72 80 71 76 58 44 45 73 89 81 87 84 62 53 43 36 29 27 24 35 54 70 98 100 100 100 100 100 100 100 100 100 100
100 100 100 100 100 100 86 100 100 100 99 87 100 97 87 62 50 47 62 64 100 66 89 74 55 48 43 32 35 27 24 25 46 46 87 100 100 100 100 100 100 100 100 100
90 91 95 100 100 98 85 92 96 51 43 100 100 90 70 60 47 64 62 73 88 91 68 100 67 68 52 49 40 39 30 28 26 28 42 84 96 98 99 100 100 100 100 100
100 96 98 100 100 98 73 66 72 58 41 71 100 94 79 63 51 74 58 51 61 100 53 99 98 70 67 55 44 39 38 34 30 29 26 29 38 54 79 89 92 92 95 86
100 100 100 100 99 95 89 89 84 55 61 100 100 100 100 99 66 59 55 53 58 55 76 61 100 91 67 54 58 50 42 42 41 33 31 31 33 32 34 43 42 48 51 60
100 100 100 100 100 91 59 42 38 81 100 100 100 100 100 100 67 50 48 50 58 62 75 66 94 99 61 77 65 56 58 50 54 47 41 34 30 31 38 41 38 41 47 50
100 95 100 100 100 100 100 91 74 66 91 100 100 100 100 100 94 56 43 66 69 66 90 98 99 100 58 72 91 70 59 62 58 53 55 40 46 41 33 31 31 33 39 46
100 77 84 100 100 78 69 90 80 72 88 100 100 100 100 100 92 87 55 58 74 79 95 100 100 100 73 60 100 88 58 79 63 61 55 48 49 48 45 47 41 36 45 42
73 96 100 100 100 100 97 68 51 93 100 96 87 75 100 100 100 100 100 61 64 62 56 100 100 100 98 62 73 87 91 63 90 66 75 74 57 54 55 53 51 50 47 36
82 93 83 96 100 94 82 100 100 100 100 98 79 78 97 75 99 100 100 94 72 66 54 52 78 100 100 94 100 100 99 82 88 93 89 89 80 86 86 92 82 73 62 52
100 87 59 64 67 64 86 100 100 100 92 80 70 76 84 84 83 98 100 88 78 62 65 63 76 100 100 99 94 100 100 100 71 98 88 78 75 89 98 100 100 100 94 82
100 100 100 100 100 95 98 100 97 89 98 88 90 87 78 76 75 80 71 78 92 76 98 87 60 55 82 97 78 88 100 100 100 60 100 92 78 78 83 89 100 100 100 100
95 72 74 98 99 99 98 94 93 86 83 68 62 64 60 53 60 76 89 86 99 92 100 68 100 82 63 58 92 61 57 99 100 100 90 100 99 100 100 100 100 100 84 100
100 100 96 98 94 96 96 70 58 57 59 72 70 56 54 57 67 79 100 100 100 100 100 100 98 100 100 89 78 99 82 70 100 99 100 95 100 100 100 100 100 100 100 100
89 96 99 100 100 100 100 100 100 100 100 100 100 100 100 94 98 100 100 100 100 100 100 100 100 100 100 100 100 99 94 98 94 99 78 91 100 100 100 100 100 99 97 100
55 73 94 98 99 100 97 91 100 100 100 87 97 100 100 100 100 100 100 100 100 100 100 100 100 100 100 100 100 100 100 100 100 100 100 100 100 100 100 100 100 100 100 83
35 36 42 53 59 61 69 62 62 68 83 85 88 82 74 86 90 85 97 92 94 98 100 100 100 100 100 100 100 100 100 100 100 100 100 100 100 100 100 100 100 100 99 98
30 31 31 31 32 30 29 28 29 31 32 31 36 37 36 40 51 52 54 68 81 95 100 100 100 97 100 89 100 100 100 100 100 100 100 100 100 100 100 100 99 95 91 87
23 24 24 27 28 26 22 20 16 16 18 19 21 22 22 22 23 24 26 26 29 33 42 56 76 86 95 96 95 100 100 100 100 100 100 100 100 100 100 100 100 95 96 97

GFSCGP_250_rhum_060.txt.gz
RH
88 100 100 100 100 43 54 82 100 75 45 100 98 79 79 66 56 69 80 64 41 24 27 23 37 50 59 58 67 85 94 91 100 100 90 85 95 100 100 87 100 100 90 93
98 100 100 100 100 50 80 100 100 52 43 100 94 98 81 98 61 69 96 83 54 36 30 38 25 52 52 53 61 72 88 88 93 100 100 91 94 90 100 100 89 100 100 80
99 100 100 100 81 45 97 99 99 44 56 100 100 100 74 90 91 60 63 86 56 49 29 35 42 26 48 50 62 69 90 85 88 80 100 100 98 100 100 99 100 99 100 100
100 100 100 98 70 62 100 100 89 41 40 100 100 100 51 58 68 70 52 64 62 54 45 33 31 33 24 33 46 50 68 73 90 83 72 100 100 100 100 98 100 79 72 76
100 100 100 100 82 62 100 94 73 51 46 98 100 98 26 50 56 76 45 45 56 66 66 53 42 40 36 24 31 51 49 74 84 93 94 98 86 100 100 100 100 92 100 100
100 100 100 100 100 80 99 90 68 73 52 76 98 72 67 49 71 72 43 42 48 83 86 72 63 44 43 27 24 27 51 57 80 100 97 100 100 100 100 100 100 100 100 100
100 100 100 100 95 80 100 100 76 98 77 95 48 44 100 68 69 67 57 51 39 76 57 87 84 62 46 32 26 24 38 48 58 87 90 99 100 100 100 100 100 100 100 100
100 100 100 100 100 100 100 100 100 100 100 74 42 64 100 73 65 80 76 54 39 47 75 50 78 81 59 44 38 26 25 27 48 62 70 80 96 99 100 100 100 100 100 100
100 100 100 100 100 90 99 100 100 99 100 98 82 71 89 84 88 93 72 50 40 50 55 66 44 79 72 61 48 36 28 28 25 39 51 75 88 95 100 100 100 100 100 100
100 100 100 91 96 77 91 96 100 99 77 90 100 100 100 100 95 100 78 52 41 47 32 66 50 57 92 72 61 46 32 34 25 28 29 46 56 81 94 86 100 100 100 100
100 100 100 96 97 100 99 80 90 96 97 91 100 100 100 100 92 100 86 66 47 32 30 36 36 34 93 87 64 60 47 44 36 30 28 29 30 40 68 86 78 87 95 97
100 100 98 90 97 100 100 91 97 81 61 54 54 100 100 100 100 100 100 79 52 38 34 31 46 52 48 92 66 59 60 46 51 49 37 34 28 30 30 33 45 54 66 81
100 100 78 66 76 100 100 100 100 100 82 71 70 95 100 100 100 88 95 81 54 42 41 38 49 49 65 56 87 68 72 59 57 61 51 39 37 42 40 32 31 31 32 36
100 100 93 100 98 96 100 99 100 97 96 58 57 80 94 100 100 98 91 89 80 61 48 44 51 43 36 84 100 60 56 85 71 61 67 53 47 41 35 44 44 41 37 35
100 100 100 100 100 100 95 80 69 63 96 81 76 57 65 100 100 100 100 99 97 85 70 56 41 40 33 42 83 100 56 62 96 69 72 70 53 49 49 51 49 46 48 51
100 100 100 100 100 100 100 100 90 82 74 91 77 59 44 80 100 100 100 100 99 94 88 67 66 61 38 39 34 46 48 45 60 100 93 68 61 65 59 47 48 64 63 86
100 100 100 100 100 100 100 100 100 100 100 83 66 52 39 39 77 100 100 100 100 100 70 72 99 80 82 73 54 56 63 61 59 69 100 100 91 84 78 80 60 70 78 65
98 100 100 100 100 100 100 100 100 99 96 97 100 85 82 76 98 98 100 97 93 94 74 92 100 100 77 88 87 66 75 98 100 67 46 86 100 97 95 87 100 78 66 63
99 90 92 100 100 100 100 100 100 98 87 88 79 67 62 54 62 78 70 100 100 100 74 85 90 100 87 85 74 89 86 75 60 81 72 48 72 85 100 98 100 100 100 77
100 90 82 75 76 86 99 100 98 92 77 82 84 85 79 75 92 84 95 94 94 100 100 90 70 79 62 71 97 100 100 84 72 71 100 100 77 70 84 100 100 100 100 100
87 88 90 71 70 70 78 80 85 84 73 72 68 65 64 59 68 93 97 91 75 99 97 87 80 82 82 70 89 98 100 75 86 96 83 76 78 91 75 70 84 100 100 100
100 96 92 91 91 83 99 91 89 92 81 81 98 100 79 67 72 78 75 70 72 76 84 80 66 76 89 97 90 100 96 100 100 100 100 86 99 100 100 77 83 97 100 100
100 96 96 87 74 86 94 100 100 100 100 100 100 100 100 98 86 75 63 56 54 52 48 48 60 86 99 97 88 80 96 97 92 89 100 100 100 100 100 100 95 100 95 100
72 98 100 100 100 100 96 96 86 82 80 76 74 78 79 76 67 63 65 69 68 68 87 77 65 76 86 98 100 100 100 100 100 100 100 100 100 100 100 100 100 100 100 100
56 84 95 99 94 96 100 100 100 99 95 98 98 91 81 82 92 92 91 92 93 84 98 100 100 100 100 100 100 100 100 100 100 100 100 100 100 100 100 100 100 100 100 100
38 41 50 72 76 74 76 79 78 73 74 73 69 66 63 60 59 62 63 63 60 64 83 91 90 92 88 99 91 93 98 99 100 100 94 100 100 100 100 100 100 100 100 100

GFSCGP_250_rhum_063.txt.gz
RH
70 43 64 100 100 100 100 99 60 85 93 84 57 50 96 88 66 76 96 76 64 56 50 42 32 22 51 53 39 66 100 96 89 100 98 65 98 100 100 85 100 100 100 100
100 85 100 100 100 100 93 91 96 96 96 79 58 61 60 88 51 68 100 94 68 61 54 55 32 29 26 59 64 41 83 100 86 72 94 96 61 100 100 100 79 83 100 100
94 100 100 100 100 100 90 100 100 100 82 84 84 84 45 90 55 50 95 78 91 62 53 71 44 32 35 27 52 62 48 84 100 68 92 100 78 67 72 96 100 100 100 92
96 100 100 100 100 100 96 100 100 100 77 91 94 100 83 57 62 42 73 65 75 58 48 69 56 44 39 24 24 46 59 55 67 99 88 73 100 92 57 65 80 97 100 100
74 92 100 100 100 100 100 98 100 100 86 77 100 100 85 35 57 67 61 58 52 53 43 67 65 60 41 34 23 23 42 59 57 62 100 95 75 99 100 100 77 89 87 100
81 96 100 100 100 100 100 80 100 92 100 94 100 100 74 32 49 80 62 60 56 54 42 39 60 71 52 43 40 24 23 32 57 70 80 100 100 100 100 100 100 100 100 98
98 100 100 100 100 100 77 69 96 81 100 100 100 100 100 35 28 57 70 64 62 49 48 38 41 62 69 57 46 40 25 22 40 59 73 79 100 100 100 100 100 100 100 93
97 82 100 100 100 100 100 100 100 100 100 100 100 100 100 46 38 58 84 64 62 68 37 38 42 43 56 63 58 50 34 24 24 35 71 79 92 100 100 100 100 100 100 100
97 80 100 100 100 100 94 90 100 93 95 100 100 100 94 79 52 63 55 52 66 95 37 36 28 26 38 63 71 59 45 29 25 26 26 54 69 93 94 100 100 100 100 100
100 100 96 100 100 100 100 100 100 94 88 100 100 100 100 100 85 73 58 55 80 100 56 40 24 27 27 43 73 73 61 46 40 34 27 26 41 61 79 86 88 99 100 100
100 94 90 100 100 100 100 73 85 98 91 100 100 100 100 100 95 100 97 83 65 99 85 42 29 26 24 26 37 65 75 71 59 48 42 30 28 24 35 63 77 79 87 92
100 82 87 100 100 100 100 100 100 96 91 100 100 100 96 100 100 100 94 81 69 100 100 66 40 32 30 25 27 46 59 49 78 77 50 50 37 34 29 26 26 48 68 81
100 100 100 100 100 100 100 100 96 99 87 92 100 100 100 100 100 100 100 82 76 92 100 96 56 40 35 27 23 26 28 34 53 78 78 68 55 53 44 39 37 31 29 31
100 100 98 100 100 100 100 96 72 82 88 90 99 100 100 100 100 100 100 97 89 56 60 80 85 64 41 37 27 27 25 28 47 41 82 81 66 61 47 52 56 57 52 46
100 100 100 95 100 100 100 100 92 90 99 100 92 100 100 99 100 100 100 100 89 70 62 92 100 100 76 49 43 35 37 30 35 79 70 81 81 64 58 39 42 39 40 49
100 100 100 100 100 100 76 92 96 99 90 80 78 75 95 100 96 93 99 100 97 83 95 98 52 99 100 94 62 53 65 52 30 31 34 51 73 82 68 55 43 57 68 58
77 99 98 91 80 88 100 77 89 93 80 87 80 75 67 95 100 100 97 96 100 100 100 100 100 100 100 98 75 48 61 62 46 33 35 51 72 69 81 92 100 100 77 83
92 70 89 100 100 100 99 100 93 63 68 76 72 63 60 65 76 94 98 100 100 100 100 100 99 100 100 100 83 60 66 99 84 51 39 32 50 96 100 100 72 98 100 100
100 96 67 100 86 100 100 100 100 100 100 100 97 75 71 70 73 82 87 96 87 71 90 100 100 85 91 80 73 62 72 92 100 84 70 44 32 40 58 80 83 97 97 98
94 100 100 78 100 100 100 100 100 100 100 100 100 100 100 100 100 100 97 100 91 82 71 89 100 100 89 90 99 100 70 61 65 65 73 70 87 65 45 57 56 66 66 99
99 94 99 88 92 100 100 99 89 100 100 100 100 100 100 100 99 98 78 84 91 86 81 78 72 81 81 93 99 96 90 90 81 64 65 58 66 80 91 73 52 62 70 66
90 100 100 100 100 90 100 100 100 99 100 100 95 91 83 76 82 81 69 65 61 62 69 75 76 83 94 98 100 99 99 95 92 72 65 80 81 75 81 97 97 99 80 57
75 98 100 100 100 100 100 100 100 100 100 100 100 100 99 93 82 78 77 79 75 64 58 59 60 68 100 100 100 100 97 95 95 80 77 78 88 97 99 91 80 75 78 87
38 86 99 100 100 100 98 99 100 98 100 95 90 86 91 91 82 75 70 69 66 63 65 65 65 66 61 59 64 76 66 64 70 69 78 71 86 99 100 100 100 100 100 100
30 62 94 95 100 100 99 99 99 95 90 93 92 84 74 96 100 100 100 99 94 89 80 69 64 60 61 64 65 60 58 72 84 96 100 90 90 99 100 100 100 100 100 100
31 38 69 92 100 98 100 96 93 98 93 90 92 84 77 70 71 71 70 75 79 83 80 77 73 72 73 76 81 87 99 100 100 100 100 100 100 100 100 100 100 100 100 100

GFSCGP_250_rhum_069.txt.gz
RH
30 30 30 21 20 19 18 28 29 31 37 45 46 100 70 95 100 86 83 68 98 64 77 90 47 22 30 25 26 20 32 36 91 99 77 92 78 92 100 100 100 100 98 100
32 32 25 18 18 27 31 34 37 43 51 40 56 100 97 92 100 96 89 77 89 71 65 99 43 28 22 33 26 27 22 30 47 95 78 99 89 80 79 90 100 99 92 100
35 29 20 17 23 36 51 34 44 56 46 42 74 98 100 100 100 100 78 83 86 57 67 50 48 31 21 42 35 30 35 23 34 54 78 64 100 100 100 100 100 85 99 97
37 26 20 30 53 69 65 39 42 63 41 48 76 97 100 92 100 100 83 78 92 57 64 71 55 32 25 24 43 34 36 32 23 32 43 84 65 100 100 100 100 81 90 61
33 29 51 62 100 68 86 45 53 60 43 88 100 100 100 100 100 100 97 80 86 57 98 78 49 38 30 24 23 38 35 34 31 22 27 64 76 52 82 86 100 100 78 91
36 51 93 100 100 99 100 59 88 100 85 90 100 100 100 100 100 100 98 90 99 60 73 98 56 48 37 30 22 22 34 36 35 24 22 30 95 74 66 85 98 100 100 78
47 91 86 100 100 100 100 88 82 100 99 100 100 100 100 100 100 97 100 100 100 94 73 100 80 53 42 35 25 20 21 36 38 30 24 28 36 66 100 94 99 100 100 99
77 100 88 100 100 100 100 100 100 100 99 100 100 87 100 98 100 100 99 100 85 61 71 77 85 53 66 63 30 22 18 18 35 34 36 28 24 35 43 94 100 96 100 100
97 100 91 95 100 100 100 100 100 100 88 100 100 100 100 100 100 100 100 99 100 75 78 57 68 53 54 89 40 22 23 18 20 33 32 34 30 24 26 36 56 88 100 100
96 100 100 82 94 100 100 100 100 100 89 100 100 100 100 100 100 100 100 100 100 96 76 41 40 41 55 80 76 35 26 24 19 18 22 33 29 32 26 24 37 62 100 100
92 100 100 90 88 100 100 100 100 100 88 94 100 100 100 100 100 94 100 100 100 100 75 66 34 40 68 57 85 57 30 30 28 25 19 24 39 34 30 28 26 28 47 86
100 100 100 99 86 88 100 100 100 100 100 89 100 100 100 100 100 99 87 100 100 100 100 82 74 40 49 50 70 94 78 43 33 29 25 22 21 27 40 34 30 30 27 29
100 100 100 100 82 83 100 100 100 100 100 100 100 100 100 100 100 97 94 74 85 100 100 100 100 98 70 100 93 93 94 77 56 45 42 31 26 22 20 35 38 32 33 36
100 100 100 100 74 89 100 100 98 100 100 100 88 100 100 100 100 97 64 69 58 89 100 100 100 100 97 92 90 97 68 50 98 100 81 44 35 34 28 22 28 46 47 44
100 100 94 98 97 100 100 100 100 100 100 100 100 100 100 100 100 100 99 76 93 78 88 100 100 100 82 82 76 86 99 76 52 67 100 97 78 45 42 39 27 23 23 27
100 100 100 99 87 100 100 100 100 100 100 100 100 100 100 100 100 100 100 100 100 100 69 49 89 79 63 59 61 63 59 66 69 58 49 91 100 95 59 51 45 33 34 31
100 100 100 93 99 100 100 100 100 100 100 100 100 100 100 96 100 100 100 100 100 100 100 100 90 75 76 78 78 75 60 60 72 92 68 87 87 100 100 85 67 51 57 49
100 100 100 100 92 100 100 100 100 100 100 100 100 100 100 100 98 99 100 95 94 99 100 100 100 100 100 99 88 77 74 75 78 83 68 72 70 98 92 96 95 84 76 57
64 100 100 100 91 81 100 97 100 98 87 100 100 100 100 100 100 86 100 100 100 100 100 100 100 100 100 89 82 76 81 96 100 90 70 80 84 99 98 98 95 73 56 80
36 95 95 100 100 76 99 97 60 100 100 100 95 100 100 100 96 99 100 96 91 86 82 97 99 100 100 84 73 72 67 62 54 75 82 70 74 88 88 84 79 100 100 84
27 70 100 98 100 100 89 100 99 100 100 100 100 100 96 97 81 59 68 85 92 81 87 84 82 90 86 84 100 100 100 90 71 70 75 70 84 91 95 100 100 91 76 87
20 30 85 89 98 100 100 100 98 100 100 100 100 100 100 100 100 87 75 60 65 67 59 66 72 57 45 61 76 89 97 100 100 100 100 100 99 95 94 92 76 72 70 74
16 21 37 82 100 100 100 100 100 100 100 100 100 100 100 100 98 100 99 91 83 78 67 59 62 54 59 68 69 100 92 97 100 100 100 100 100 94 86 82 72 66 72 78
22 19 25 38 71 98 100 100 100 100 100 100 99 99 100 100 100 100 100 100 94 91 67 78 99 59 49 78 94 99 90 100 100 100 100 100 96 79 71 56 62 69 77 70
23 21 19 25 38 64 78 94 100 100 100 100 100 99 100 97 98 99 98 97 80 95 98 94 100 100 100 100 100 100 100 100 100 100 95 87 76 71 80 98 97 88 88 100
19 21 20 20 31 37 78 79 100 100 97 90 97 100 100 100 100 100 94 76 100 100 100 100 100 100 100 100 100 100 97 91 61 77 82 83 96 96 82 89 94 100 100 100

GFSCGP_250_rhum_072.txt.gz
RH
68 68 56 43 35 32 30 28 26 20 27 21 26 30 21 40 48 74 71 100 100 80 97 90 56 78 62 22 20 28 22 22 31 45 77 94 100 100 100 100 100 100 100 100
62 65 62 40 31 28 29 25 22 23 24 24 29 48 32 41 68 100 99 100 100 87 93 80 54 90 56 23 24 29 30 29 22 25 42 91 99 100 100 100 100 100 100 100
71 56 45 38 32 24 24 21 20 29 18 32 33 48 49 48 92 100 99 100 98 98 83 68 79 66 35 23 25 36 32 33 29 21 26 42 75 97 100 100 100 100 100 100
62 43 38 42 32 20 23 18 18 30 20 42 39 51 46 57 100 100 100 100 90 94 74 70 58 52 46 24 25 23 31 32 31 28 20 29 53 65 73 90 100 100 100 100
57 43 39 46 30 26 31 18 31 33 30 40 50 64 82 48 100 100 100 100 96 99 95 64 68 60 46 31 27 21 19 25 32 28 26 19 27 46 58 68 100 100 100 100
50 43 51 48 34 60 33 55 76 52 38 42 67 93 86 74 100 100 100 100 90 96 99 72 98 74 59 39 31 27 20 18 27 34 29 24 20 26 38 69 70 96 97 100
54 52 53 46 43 85 80 100 93 80 40 92 87 100 100 100 100 100 100 100 100 96 100 86 75 83 81 53 39 34 23 18 19 27 37 32 26 27 41 59 61 77 92 94
64 47 66 45 81 90 100 100 96 73 58 100 73 96 100 99 82 100 100 100 100 100 81 69 81 93 98 60 45 55 27 23 22 20 30 38 36 29 25 35 61 62 54 76
68 57 58 56 100 100 100 100 100 100 73 100 69 100 100 81 87 100 100 100 100 82 91 82 76 87 88 57 51 51 59 26 26 21 21 22 30 35 33 24 25 38 63 66
59 65 58 74 100 100 99 100 100 93 74 100 84 100 100 91 73 75 92 100 100 96 100 98 86 97 92 64 60 47 79 52 29 24 29 24 23 26 38 35 29 23 29 41
54 60 64 97 95 100 100 100 100 100 94 100 100 100 100 100 83 58 73 100 100 100 100 100 100 100 89 66 61 54 64 77 50 29 30 29 25 21 23 31 31 35 31 25
53 53 57 98 94 98 100 100 100 96 91 100 100 100 100 100 82 62 83 100 100 100 100 100 100 99 99 74 42 35 64 65 88 65 42 28 34 31 24 24 19 21 30 36
66 54 54 86 100 100 100 100 100 100 100 87 100 100 100 100 86 72 59 86 100 100 100 100 100 100 100 100 84 60 72 75 92 84 81 64 49 56 37 32 30 24 24 23
51 62 52 69 99 82 96 100 100 100 100 100 82 100 100 100 100 83 66 73 100 100 100 100 100 100 100 100 100 100 100 100 98 81 58 60 96 84 73 56 47 41 36 34
41 61 53 56 99 96 98 99 100 100 100 100 100 90 100 100 100 100 97 79 70 94 95 100 100 99 100 100 100 100 100 78 63 65 65 53 60 59 63 63 75 72 59 48
41 50 47 48 95 100 100 100 100 100 100 100 100 100 90 100 100 100 100 100 60 65 77 77 98 100 89 100 100 100 97 100 100 95 73 66 47 50 57 71 69 84 81 82
38 37 41 42 88 100 100 100 100 91 100 100 100 100 91 99 100 100 100 100 94 69 63 74 100 100 100 100 100 100 100 98 95 84 79 76 70 73 74 77 57 49 63 93
38 33 40 53 100 100 99 99 87 91 100 100 100 100 100 100 98 86 100 100 100 94 82 70 58 76 85 79 97 100 98 90 82 81 85 93 93 94 100 100 96 90 81 86
39 33 39 64 100 100 91 100 100 91 88 100 100 100 100 100 100 100 100 100 100 100 97 93 75 54 72 84 97 100 100 94 79 65 73 78 91 100 100 100 100 100 100 99
42 39 36 65 100 100 85 94 100 83 86 100 100 100 100 100 100 100 100 100 100 100 100 92 87 89 100 85 88 85 83 85 81 78 73 72 65 77 92 100 94 72 80 100
34 38 38 53 100 100 99 77 95 100 100 100 100 100 100 98 100 100 100 100 98 99 98 94 89 100 100 100 100 99 85 71 71 72 70 66 64 59 61 77 88 89 99 100
30 39 38 38 100 100 100 79 81 91 94 100 100 100 100 100 100 100 100 100 95 64 55 64 83 87 86 91 85 83 89 92 91 86 66 68 71 70 67 68 79 91 95 95
27 30 34 36 81 100 100 100 78 88 100 100 100 100 100 100 100 100 100 92 93 93 99 100 90 82 63 70 76 97 97 74 75 76 63 57 72 86 94 81 59 86 87 91
23 25 28 30 32 98 100 100 96 73 91 97 84 100 100 100 100 76 88 100 100 100 100 97 92 90 86 77 73 69 60 67 69 75 71 66 51 68 55 68 100 88 100 100
25 23 22 24 25 36 99 100 100 100 91 80 77 83 100 86 68 85 100 100 100 100 100 100 90 87 86 86 74 66 76 72 77 57 58 60 47 82 93 97 100 100 100 100
23 23 21 23 25 28 36 100 100 100 100 100 81 76 83 100 95 81 73 73 67 66 77 81 83 95 91 79 95 99 91 78 70 91 85 100 100 100 100 100 100 100 100 100

GFSCGP_250_rhum_078.txt.gz
RH
100 100 100 100 100 88 94 100 100 88 79 39 33 35 59 55 30 31 31 23 26 36 37 45 53 45 93 99 92 80 63 56 30 29 28 26 36 59 100 100 100 100 100 100
100 100 100 100 80 95 100 100 100 89 62 39 37 37 44 41 28 27 24 26 44 46 38 61 49 66 100 98 93 69 52 28 25 29 33 29 23 31 84 100 100 100 100 94
100 96 100 100 97 100 100 97 71 59 56 45 33 32 32 33 27 26 26 40 50 43 48 61 53 90 98 95 94 64 51 20 22 28 30 29 25 22 41 100 100 100 100 100
97 100 72 88 100 100 100 84 76 56 46 38 37 24 33 29 28 25 37 58 47 46 83 61 72 74 91 96 93 66 48 20 23 19 24 30 25 21 24 86 100 100 100 100
100 100 100 100 100 100 100 96 69 52 41 43 46 18 44 25 26 34 49 57 48 59 74 75 78 76 83 99 88 76 31 22 26 18 22 30 28 22 23 47 100 100 100 100
100 100 100 100 100 100 100 99 60 40 41 58 38 21 26 21 31 40 61 63 62 69 89 83 75 98 89 100 95 76 31 23 28 22 20 23 28 30 25 34 82 100 100 100
98 100 96 97 96 89 91 78 47 39 54 70 37 26 16 25 32 44 77 71 89 93 77 66 79 100 94 100 84 86 52 32 34 30 23 18 22 30 31 27 38 92 100 100
100 99 99 100 91 84 82 59 51 55 81 56 45 70 28 37 35 71 99 84 100 90 69 66 100 100 94 100 88 91 70 59 47 39 30 23 19 21 22 33 31 26 60 92
100 100 100 94 97 88 86 62 54 69 68 56 63 99 38 45 62 100 100 81 100 88 61 76 93 73 90 91 81 82 68 56 47 42 48 34 26 31 24 18 26 34 28 28
100 100 95 96 94 80 76 73 63 84 67 61 93 90 48 75 100 100 100 92 100 100 74 63 68 67 82 77 80 87 74 71 80 73 59 63 32 32 34 24 18 21 26 28
100 100 100 100 100 100 92 87 79 82 63 66 100 100 61 100 100 100 100 86 88 99 79 60 45 89 92 99 98 90 93 88 74 78 64 51 63 30 40 35 26 21 19 24
87 100 100 100 94 91 79 84 82 77 63 66 100 100 82 100 100 100 100 98 80 94 100 89 57 54 99 100 100 100 100 95 91 88 67 42 60 47 43 41 36 31 29 27
82 100 100 100 100 94 78 84 85 68 67 78 99 100 100 100 100 100 100 100 98 83 88 100 73 71 100 100 91 89 95 96 98 92 80 60 48 53 60 69 51 41 38 48
48 70 100 100 100 100 96 83 61 67 75 85 100 100 100 97 100 100 100 100 100 100 90 94 98 72 100 100 94 99 97 100 100 100 93 85 75 62 58 50 49 70 53 52
20 41 47 59 90 89 62 65 67 73 80 86 100 100 100 100 95 97 100 100 100 100 100 100 100 100 88 100 100 100 100 100 97 100 100 96 85 62 59 68 70 76 67 74
15 24 38 42 40 55 66 63 64 73 72 100 100 100 100 100 100 88 100 100 100 100 100 100 100 100 100 100 100 100 100 100 100 88 77 88 76 71 70 81 86 85 89 76
20 18 27 36 31 41 70 46 69 73 86 95 100 100 100 100 100 100 89 95 99 100 100 100 100 100 100 99 91 93 93 95 100 92 65 68 77 71 66 69 76 82 80 88
23 20 21 32 32 44 37 41 57 81 75 87 95 100 100 100 100 100 100 100 100 100 100 100 100 100 100 100 100 100 94 100 100 71 84 91 81 85 71 58 59 65 87 95
21 20 21 31 36 45 34 45 49 71 68 93 90 100 100 100 100 100 100 74 80 92 98 100 100 100 100 100 100 100 100 99 100 100 100 97 88 89 86 86 71 57 53 64
19 20 20 28 34 38 35 40 42 64 57 76 98 100 100 100 100 100 99 100 88 76 82 92 99 100 100 100 100 85 97 100 100 100 100 100 100 100 100 100 100 100 100 84
21 24 25 24 33 51 32 37 47 61 52 75 100 100 100 100 100 100 100 100 100 74 54 61 65 76 98 90 85 74 89 96 99 100 99 98 100 100 100 100 100 100 96 98
21 23 24 25 39 38 29 40 51 55 51 80 98 100 100 100 100 100 100 100 100 100 100 96 62 55 68 63 57 45 61 75 87 100 100 100 100 100 100 100 96 92 100 100
20 22 24 28 40 38 32 39 45 54 52 87 97 100 100 100 100 100 100 100 100 100 100 100 100 100 100 94 100 85 51 46 51 44 49 70 78 79 86 95 94 96 98 96
20 23 24 25 31 39 39 40 45 49 48 85 100 100 100 100 100 100 100 100 100 100 100 100 100 100 100 100 100 100 100 100 100 86 59 48 50 50 54 59 57 69 84 87
23 26 27 29 34 44 42 40 47 53 48 60 100 100 100 100 100 100 100 100 100 100 100 100 100 100 100 100 100 100 100 100 99 100 91 76 78 94 92 87 77 66 68 66
26 26 29 34 39 41 35 38 46 53 54 52 98 100 100 100 100 100 100 100 100 98 99 100 88 90 76 77 86 92 81 77 70 68 61 70 97 80 67 56 56 59 56 63

GFSCGP_250_rhum_081.txt.gz
RH
69 65 97 100 100 95 100 100 100 100 81 70 68 63 79 83 72 52 42 39 35 35 37 25 22 25 32 56 84 65 67 84 71 64 28 32 28 21 38 86 100 100 100 100
70 78 100 100 100 86 99 100 100 100 100 98 66 58 83 79 63 46 45 49 33 29 29 26 26 31 60 65 71 68 78 84 66 47 31 34 27 26 27 95 100 100 100 96
92 100 100 100 100 100 88 78 100 100 100 92 58 66 99 82 64 42 42 45 27 27 27 30 32 48 95 78 70 76 89 77 60 31 26 31 28 26 22 83 100 100 100 100
100 100 100 100 100 98 99 100 100 97 79 74 81 61 93 62 49 40 44 30 25 25 28 31 42 79 99 75 69 83 98 78 66 31 23 22 27 24 19 20 100 100 100 100
100 100 100 100 100 100 85 100 100 96 77 75 93 84 62 60 42 38 37 25 24 23 28 34 62 91 78 72 84 87 98 77 71 28 26 22 24 25 17 18 99 100 100 100
100 100 100 100 100 100 100 100 100 86 79 82 100 59 58 68 37 33 26 23 20 27 33 46 77 88 72 75 96 93 97 88 62 29 28 22 23 27 20 22 74 100 100 100
100 100 100 100 100 100 100 92 80 86 95 93 66 54 65 59 34 24 23 26 25 32 38 56 90 94 86 100 98 98 98 95 56 28 27 24 24 29 27 28 37 100 100 100
100 98 100 100 100 100 100 100 100 96 99 96 75 55 64 75 26 22 22 23 36 42 63 60 88 97 100 98 94 97 83 92 68 34 34 34 34 24 29 34 34 68 100 100
100 100 100 97 100 100 100 100 100 86 81 78 58 60 68 89 32 40 26 33 49 70 91 71 95 100 100 78 84 91 76 95 92 69 63 48 36 30 27 28 33 29 65 100
98 100 100 100 100 99 97 96 80 78 76 65 58 74 76 90 48 60 54 64 72 84 83 89 89 99 95 80 84 93 77 88 88 88 90 57 48 37 31 26 20 27 26 41
85 97 100 100 100 98 89 91 84 77 68 64 66 77 98 89 65 76 98 100 100 99 100 93 98 100 100 97 98 87 77 80 93 100 88 66 42 49 43 36 30 19 22 24
43 94 100 100 100 100 100 80 77 71 67 65 74 81 100 97 83 97 100 100 100 100 95 78 96 100 100 100 100 95 69 84 100 100 95 77 57 36 52 50 33 44 30 22
26 61 92 98 87 98 100 100 100 98 85 85 85 81 93 97 92 100 100 100 100 100 94 74 65 100 100 100 100 98 88 85 92 87 82 79 79 68 49 66 60 38 42 40
18 44 75 93 94 99 100 100 95 93 80 77 84 94 88 99 96 100 100 100 100 100 100 87 64 65 98 100 100 100 100 99 82 84 95 99 89 75 73 61 65 62 56 58
17 22 38 61 86 93 100 100 92 84 67 84 88 96 98 100 92 100 100 100 100 100 100 100 77 49 53 75 98 100 100 100 85 94 97 96 97 85 84 79 62 51 48 50
16 16 14 24 38 59 85 92 94 86 69 96 86 98 100 100 88 100 100 100 100 100 100 100 100 86 67 70 100 100 100 100 93 84 95 94 84 73 74 75 62 77 81 87
16 12 10 12 22 42 51 62 96 100 96 98 90 100 100 100 95 100 100 100 100 100 100 100 98 100 100 100 100 100 100 100 100 100 100 85 68 65 55 58 54 63 65 69
13 13 15 20 24 31 41 55 63 98 90 90 92 100 100 100 100 100 100 100 100 100 100 100 100 100 89 86 89 100 100 100 100 100 100 100 95 62 54 54 56 58 63 56
13 18 21 25 23 24 32 45 47 69 55 81 91 100 100 100 100 96 100 100 100 100 100 100 100 100 100 83 74 76 92 100 100 100 95 100 100 97 58 60 80 76 67 55
17 18 22 25 22 23 32 44 54 53 49 83 97 100 100 100 100 100 100 100 98 100 100 100 100 100 100 100 91 81 80 85 92 95 95 95 99 90 76 67 83 77 65 53
17 18 20 25 24 23 24 40 50 45 50 84 88 100 100 100 100 100 100 100 100 100 100 100 100 100 100 100 100 100 100 99 100 100 100 100 98 100 100 100 95 83 90 93
14 16 18 23 22 20 20 37 42 40 48 75 84 97 100 100 100 100 100 100 100 100 100 100 100 100 100 100 100 100 100 100 100 100 100 98 100 100 100 100 100 100 100 100
13 14 17 20 20 18 20 32 37 39 44 60 77 84 100 100 100 100 100 100 100 100 100 100 97 94 100 100 100 100 100 100 100 100 100 100 100 100 100 100 100 100 100 100
13 15 20 22 23 20 21 31 38 35 43 56 68 79 100 100 100 100 100 100 100 100 100 100 100 100 100 83 85 100 100 100 97 75 78 81 90 72 90 96 100 100 99 98
12 15 20 22 24 22 22 32 38 34 37 52 69 89 100 100 100 100 100 100 99 84 87 95 98 89 84 78 80 68 61 60 68 60 60 52 43 42 42 44 41 50 56 47
14 16 21 23 24 23 22 29 43 40 40 50 68 88 100 100 100 100 100 100 100 100 100 93 83 85 97 99 99 100 97 89 88 98 100 100 91 96 99 72 75 80 94 90

GFSCGP_250_rhum_087.txt.gz
RH
81 52 33 25 18 19 26 31 39 48 50 82 100 94 98 100 100 100 100 100 100 100 100 99 86 85 65 39 36 34 31 32 27 27 31 49 80 77 56 28 22 19 15 14
55 39 26 22 17 18 25 33 35 41 46 68 87 86 100 100 100 100 100 100 100 100 100 100 100 98 65 40 37 32 33 28 28 29 52 81 84 66 39 22 24 19 16 15
33 28 30 22 20 18 28 33 35 49 70 87 90 81 100 97 100 100 100 100 100 100 100 87 77 65 54 36 35 31 38 26 28 36 86 85 85 47 30 27 26 25 24 25
20 29 23 26 24 21 26 34 43 75 99 94 82 88 100 100 100 100 100 100 100 100 100 100 83 50 42 34 32 32 35 28 30 81 89 90 70 39 31 26 26 24 29 25
20 23 22 25 28 23 30 38 62 84 95 98 85 76 100 100 100 100 100 100 100 100 100 100 88 72 50 38 32 35 33 32 47 97 92 90 61 37 23 21 21 20 24 58
20 17 22 25 29 34 46 64 73 86 98 92 100 78 100 92 94 100 100 100 100 100 99 79 62 53 41 35 33 37 35 47 84 97 98 77 54 36 20 21 19 19 20 73
17 18 18 20 35 53 80 92 98 99 98 100 100 100 100 99 99 100 100 100 100 100 81 74 67 38 36 34 31 30 35 86 100 96 98 78 74 36 20 24 24 18 17 72
15 16 16 22 37 61 84 98 100 96 100 100 100 100 100 100 100 100 100 100 100 100 95 70 49 36 32 27 28 34 48 99 96 100 97 86 78 32 25 25 26 22 21 89
14 14 16 20 37 53 85 100 100 100 100 100 100 100 100 100 100 100 100 100 87 71 57 38 33 33 26 27 29 38 79 100 98 100 100 92 83 32 27 25 29 25 26 87
11 12 13 18 22 40 84 94 97 100 100 100 100 100 100 100 100 100 100 97 88 72 49 36 31 29 29 31 34 64 99 99 100 100 100 95 84 32 34 27 28 29 29 70
9 9 9 14 20 27 64 89 100 99 100 100 100 100 100 86 86 100 100 86 72 55 43 38 30 33 37 39 41 93 100 100 100 100 100 100 87 35 31 34 32 30 31 44
9 9 10 12 14 25 50 84 93 100 100 100 100 100 100 97 87 99 100 79 60 51 47 36 31 35 38 50 60 100 100 100 100 100 100 100 90 43 36 36 39 40 30 26
12 11 10 11 12 22 44 84 89 96 98 100 100 100 100 99 88 79 74 69 64 63 49 41 32 36 52 49 89 100 100 100 100 100 100 100 100 71 38 49 58 47 39 31
12 15 16 14 15 17 36 80 97 100 98 100 100 100 93 98 80 74 81 79 80 55 51 45 40 48 63 70 100 100 100 100 100 100 100 100 100 90 67 53 70 68 56 43
10 14 15 15 13 16 29 51 78 97 92 94 95 100 100 89 83 86 74 78 78 50 68 66 60 74 73 89 100 100 100 100 100 100 100 100 96 96 99 83 64 64 58 57
9 14 17 19 16 14 18 27 37 71 100 92 87 94 79 85 96 75 76 90 65 55 94 100 100 100 91 96 100 100 100 100 100 100 100 86 88 96 96 91 88 76 66 53
10 13 14 13 17 18 18 26 42 73 94 100 100 88 77 100 100 95 76 89 63 82 100 100 100 100 86 99 100 100 100 100 100 100 100 88 96 90 90 93 100 86 62 49
7 10 12 13 17 20 17 24 33 52 94 90 98 94 100 100 100 90 77 77 71 97 100 100 100 100 90 98 100 100 100 100 100 100 100 92 100 100 100 100 95 82 71 66
8 8 13 22 18 21 23 25 33 60 89 98 100 97 100 100 100 86 89 95 98 100 100 100 100 100 99 92 87 100 100 100 100 100 100 100 100 100 100 88 83 93 88 86
9 12 16 19 19 22 23 20 28 45 76 89 91 85 85 92 93 88 95 98 100 100 100 100 100 100 100 100 89 98 100 100 100 100 100 100 100 100 100 85 77 88 98 98
10 15 17 19 20 20 21 24 24 33 63 81 100 98 92 83 86 87 100 91 100 100 100 100 100 100 100 100 100 96 98 100 100 100 100 100 100 100 100 96 99 100 100 100
11 16 20 18 21 25 22 26 32 43 63 78 94 100 100 96 81 84 100 100 100 100 100 100 100 100 100 100 100 100 100 100 100 100 100 97 100 100 100 100 100 100 100 100
12 14 16 16 19 23 25 30 32 34 51 70 85 95 100 100 84 75 100 100 94 100 100 100 100 100 100 100 100 100 100 100 83 81 100 100 100 100 100 100 100 100 100 100
11 13 19 16 14 18 24 29 31 30 32 35 43 55 86 100 99 72 86 100 97 100 100 100 100 100 99 100 100 100 100 100 93 96 100 100 100 100 100 100 100 100 100 100
10 13 14 16 13 14 21 25 27 23 25 24 23 26 46 70 87 73 78 100 100 87 100 100 100 100 100 100 100 100 100 100 56 89 90 97 92 98 100 100 100 100 100 100
11 12 14 15 13 13 14 22 24 23 24 24 22 24 35 52 60 70 78 100 100 100 87 100 100 100 100 100 100 100 100 100 100 97 100 99 83 87 98 88 71 62 64 65

GFSCGP_250_rhum_090.txt.gz
RH
95 68 68 55 42 45 49 33 30 27 24 20 20 26 44 58 62 96 100 100 100 100 100 100 100 100 100 100 100 100 84 93 78 45 31 31 26 24 29 44 74 67 61 42
71 66 58 33 34 33 34 30 25 20 20 17 18 24 46 55 65 100 100 100 100 92 100 100 100 100 100 100 100 100 100 92 62 45 31 30 26 29 40 70 72 66 45 28
70 52 48 26 27 23 24 24 20 18 17 19 19 24 40 53 61 88 97 100 100 100 93 100 70 88 100 100 100 100 79 71 56 35 38 30 28 36 62 74 77 57 26 25
40 36 28 21 22 25 24 19 18 18 20 27 25 30 44 54 63 63 77 81 100 98 88 100 100 100 100 100 100 100 100 82 44 37 34 28 31 57 70 81 77 46 22 24
30 24 21 20 26 21 22 19 18 20 24 29 44 35 58 59 56 55 66 76 100 90 100 100 100 100 100 100 100 100 100 89 51 34 35 28 45 64 83 84 69 27 18 20
25 24 21 22 23 18 18 21 21 22 26 31 60 53 65 97 88 77 89 100 95 87 100 100 100 100 100 100 95 100 98 61 39 35 35 37 67 75 90 77 29 19 19 21
27 23 24 18 16 17 18 21 22 19 27 52 58 59 78 98 91 97 84 89 90 100 100 100 100 100 100 100 100 95 79 40 46 36 34 68 71 94 85 40 20 22 21 21
26 23 17 17 16 19 16 20 21 30 50 77 86 83 98 89 100 100 79 79 78 99 100 100 100 100 100 99 89 77 53 47 47 36 33 74 90 95 77 32 24 21 24 19
19 18 18 15 16 16 15 17 24 34 55 92 100 100 100 100 100 100 98 99 87 100 100 100 100 100 99 83 66 51 45 45 31 31 54 75 100 95 71 33 25 21 25 22
17 16 18 14 13 16 14 19 26 43 78 96 100 100 100 100 100 100 100 98 100 100 100 92 100 100 80 66 50 60 50 61 34 38 88 86 95 95 58 38 24 22 27 28
17 15 18 12 13 13 13 19 30 40 80 100 100 100 100 100 100 100 100 100 100 100 100 100 100 96 80 60 54 37 78 96 30 76 82 98 96 96 48 46 27 26 27 33
15 12 12 9 11 10 11 19 27 38 91 100 100 100 100 100 100 100 100 100 100 100 100 100 86 79 49 46 42 40 40 65 51 100 87 100 100 91 47 55 34 27 28 26
10 8 9 8 11 11 14 19 25 45 83 100 100 100 100 100 89 100 100 100 100 100 100 99 78 55 46 43 60 34 35 57 96 99 100 100 100 88 60 70 56 39 39 38
8 8 10 12 15 16 14 18 27 49 77 100 100 100 100 100 100 100 100 100 100 96 94 86 66 61 47 46 53 36 40 81 100 100 100 100 100 87 76 92 99 82 60 39
9 10 12 14 16 18 16 15 27 51 87 94 99 100 100 100 100 100 100 100 100 100 90 84 68 58 51 52 40 39 68 99 100 100 100 100 100 96 82 84 100 100 81 62
9 9 13 13 16 21 20 20 25 37 81 74 84 70 78 100 100 100 100 100 100 100 80 79 64 57 60 49 40 56 92 96 100 100 100 100 100 100 100 88 100 100 97 78
8 8 13 14 19 19 18 18 22 25 22 41 41 64 98 100 100 98 93 100 98 84 99 70 73 70 90 77 53 80 100 97 100 100 100 100 95 91 99 100 99 99 100 98
7 9 13 15 19 18 18 23 22 16 16 27 63 80 76 89 100 99 100 100 88 81 95 80 76 95 100 100 83 96 100 93 100 100 100 100 86 79 99 100 99 100 98 91
8 9 11 13 12 12 13 21 24 22 22 43 71 89 86 86 99 100 91 88 100 100 82 75 86 100 100 100 100 97 100 100 100 100 100 100 90 92 93 100 100 100 100 97
8 9 12 13 11 14 19 24 26 23 29 43 61 87 94 86 84 84 88 100 100 100 79 80 94 100 100 100 100 100 100 100 100 100 100 100 100 100 100 100 100 100 94 87
9 10 14 16 17 19 21 27 24 23 31 34 53 72 98 98 98 99 100 100 100 99 86 98 100 100 100 100 100 100 100 100 100 100 100 100 99 100 100 100 100 100 100 100
9 12 14 21 25 20 19 23 26 26 28 28 43 64 99 100 100 99 100 100 94 91 99 100 100 100 100 100 100 100 100 100 100 100 100 100 100 100 97 99 93 100 98 93
9 12 13 18 18 17 19 23 25 28 32 32 39 69 90 100 100 100 97 89 89 95 100 100 100 100 100 100 100 100 86 100 100 100 100 100 100 100 100 100 100 100 100 100
8 12 12 16 16 15 16 19 23 26 32 40 54 82 100 100 100 91 91 88 100 100 100 100 100 100 100 100 100 99 90 96 100 100 96 97 100 100 100 100 100 100 100 100
9 10 12 14 17 16 16 17 20 27 31 33 45 75 100 100 100 97 93 87 95 100 100 99 100 100 100 100 100 100 100 100 90 100 100 100 98 100 100 100 100 92 100 100
10 12 13 14 14 16 17 18 20 25 28 31 34 50 74 95 99 99 99 90 79 100 100 100 100 100 100 100 100 100 100 100 100 100 100 100 97 95 72 100 100 100 100 100

GFSCGP_250_rhum_093.txt.gz
RH
98 96 100 91 81 63 61 63 58 48 48 25 23 17 22 26 30 31 26 29 26 29 36 39 60 100 93 86 91 87 100 100 100 100 100 100 100 77 56 48 29 25 28 35
100 100 100 94 75 76 54 45 44 42 37 27 20 16 20 24 21 19 18 18 25 33 44 52 86 100 100 100 100 100 100 100 100 100 100 100 93 58 42 40 26 27 44 70
100 100 100 100 100 86 42 34 34 30 27 23 17 18 18 18 16 19 18 19 24 38 56 70 88 100 100 95 100 100 100 100 80 75 100 95 99 67 66 35 29 37 69 73
94 100 100 100 41 35 31 28 25 21 19 18 18 16 16 18 17 19 22 23 43 46 72 84 82 98 82 90 100 98 100 100 100 100 100 100 100 86 62 35 30 66 76 68
99 88 55 55 38 26 24 23 23 19 16 14 22 14 21 20 21 22 26 41 58 83 97 99 98 100 78 88 82 52 72 99 100 100 100 89 94 74 60 41 35 76 75 69
59 43 32 30 25 23 23 21 18 17 16 16 19 14 25 23 27 54 54 51 68 78 95 100 100 95 98 91 100 100 100 100 100 92 97 87 88 68 44 46 48 76 78 68
38 29 26 23 20 22 21 17 14 15 18 17 15 17 24 30 70 88 86 86 83 72 72 76 98 97 90 87 67 70 100 100 80 100 79 79 48 56 59 57 67 81 79 49
22 27 28 25 28 25 24 18 17 15 15 17 16 23 25 56 84 100 89 100 100 98 98 100 100 100 86 96 100 98 89 91 89 98 86 93 100 75 52 46 78 90 54 23
20 21 30 28 24 20 25 21 16 15 16 16 20 30 33 87 86 100 100 100 100 100 100 100 100 100 92 100 100 98 74 86 91 69 72 100 100 98 46 49 88 79 31 24
19 15 29 27 23 27 16 17 17 15 16 18 26 39 73 100 100 100 100 100 100 100 100 93 100 100 100 100 94 61 100 100 100 100 90 92 91 76 36 74 96 55 32 27
14 14 26 22 22 22 17 17 16 14 16 19 37 54 100 100 100 100 88 100 100 100 100 100 98 95 89 79 82 44 77 100 92 71 74 74 59 63 72 92 88 50 31 29
14 12 16 21 18 19 15 15 14 14 18 24 58 73 100 100 100 100 100 84 100 100 100 100 99 98 87 94 99 83 49 59 72 68 74 78 69 90 100 92 75 54 36 28
12 14 17 18 15 14 14 13 12 14 15 36 79 100 100 100 100 100 99 85 100 100 100 100 100 100 100 100 100 98 63 50 55 44 55 69 85 100 100 98 72 56 45 33
12 10 9 11 9 10 10 14 12 13 19 51 86 100 100 100 100 100 100 83 99 100 100 100 100 100 100 100 88 61 49 48 37 46 95 70 100 100 100 99 85 65 67 60
8 8 10 10 10 14 12 15 16 19 24 53 90 100 100 100 100 100 100 93 83 100 100 100 100 100 100 89 60 54 50 45 62 55 94 97 100 100 100 100 90 70 85 91
10 8 10 10 11 13 13 21 18 17 24 60 100 97 100 100 100 100 86 79 82 85 100 100 100 93 100 98 68 64 60 89 77 69 100 100 100 100 100 98 97 85 90 100
8 8 9 8 12 15 19 22 19 16 17 52 100 89 53 87 96 100 100 100 100 100 100 100 99 100 86 69 60 62 68 95 90 88 100 100 100 100 100 100 100 100 81 86
8 8 7 9 14 18 19 19 18 22 21 23 30 33 64 75 87 100 100 100 100 100 100 100 100 90 69 72 72 84 85 86 69 93 100 100 100 100 97 99 100 100 96 93
7 7 8 12 16 21 18 12 14 21 19 18 18 23 36 61 91 100 100 100 100 100 100 100 100 98 75 76 96 93 92 98 96 100 100 100 100 100 79 96 98 99 100 100
8 8 9 10 14 18 13 17 19 28 29 23 22 22 26 48 82 89 100 100 100 100 100 100 97 93 87 97 100 100 100 100 98 100 100 100 100 91 70 87 100 100 100 100
9 10 11 12 13 11 8 19 21 31 32 26 28 32 32 53 80 82 95 100 100 100 86 99 92 98 91 98 100 100 100 100 100 100 100 100 100 97 97 98 100 100 100 100
11 11 12 15 19 16 15 19 20 24 27 28 27 38 42 64 78 88 95 93 96 95 92 100 99 91 96 100 100 100 100 100 100 100 100 100 100 100 100 100 100 100 100 100
10 11 11 13 17 17 21 22 29 37 38 30 28 33 39 53 77 88 100 93 87 92 96 100 100 83 95 100 100 100 100 100 100 100 100 100 100 100 100 100 100 100 100 100
8 10 11 12 15 18 19 20 26 30 33 34 32 30 31 46 70 88 100 99 91 89 100 100 100 81 94 100 100 100 100 100 100 100 100 100 100 100 100 100 100 100 100 100
10 12 11 14 15 17 16 15 18 24 27 29 30 32 41 53 70 86 100 98 99 94 99 100 100 85 95 100 100 100 100 100 100 100 100 100 100 100 100 100 100 100 100 100
10 11 13 15 16 18 19 20 19 20 25 27 28 31 35 53 64 79 96 98 98 98 94 100 86 88 96 100 100 100 100 100 100 100 100 100 100 100 100 100 100 100 100 100